Terug naar catalogus

FENGYUN 1C DEB

ActiefSSO
NORAD 30621·DEBRIS·🇨🇳 China

Gelanceerd May 10, 1999 vanaf Taiyuan Satellite Launch Center

Loading…

Volgende Passages (komende 24 uur)

TLE

VersSource: Space-Track

Epoch: Sep 14, 2026, 06:47 UTC

1 30621U 99025ANC 26257.28276103  .00001959  00000-0  11418-2 0  9999
2 30621  98.7021 194.4343 0132270 252.3358 267.6528 14.05370412994580

Volg FENGYUN 1C DEB in realtime met AllMySat

Download on the App Store